Вернуться в каталог

YAOGAN 29 DEB

АктивенВоенныеSSO
NORAD 42673·DEBRIS·🇨🇳 China

Запущен Nov 26, 2015 с Taiyuan Satellite Launch Center

Loading…

Ближайшие Пролёты (ближайшие 24 часа)

TLE

СвежийSource: Space-Track

Эпоха: Sep 14, 2026, 21:49 UTC

1 42673U 15069F   26257.90970777  .00000843  00000-0  90223-4 0  9996
2 42673  97.8691 293.5103 0004700  79.2182 280.9565 14.91333098585359

Отслеживайте YAOGAN 29 DEB в реальном времени с AllMySat

Download on the App Store